Regional Weather Roundup
Issued by NWS

Home | Current Version | Previous Version | Text Only | Print | Product List | Glossary Off
Versions: 1 2 3 4 5 6 7 8 9 10 11 12 13 14 15 16 17 18 19 20 21 22 23 24 25 26 27 28 29 30 31 32 33 34 35 36 37 38 39 40 41 42 43 44 45 46 47 48 49 50

000
ASUS43 KMKX 081211
RWRWI

WISCONSIN REGIONAL WEATHER ROUNDUP
NATIONAL WEATHER SERVICE MILWAUKEE/SULLIVAN WI
600 AM CST THU DEC 08 2016

NOTE: "FAIR" INDICATES FEW OR NO CLOUDS BELOW 12,000 FEET WITH NO
SIGNIFICANT WEATHER AND/OR OBSTRUCTIONS TO VISIBILITY.

WIZ001-002-006>008-014>016-023>028-081300-
NORTHWEST WISCONSIN

CITY           SKY/WX    TMP DP  RH WIND       PRES   REMARKS
SUPERIOR ARPT  CLOUDY    24  18  77 NW13      30.14R WCI  12
6HR MIN TEMP:  21; 6HR MAX TEMP:  25;

ASHLAND        CLOUDY    23  20  88 NW9       30.07R FOG     WCI  13
6HR MIN TEMP:  18; 6HR MAX TEMP:  23; 6HR PCP: TRACE;

HAYWARD        FLURRIES  19  15  84 VRB7      30.07R WCI  10
6HR MIN TEMP:  16; 6HR MAX TEMP:  19; 6HR PCP: TRACE;

SIREN          CLOUDY    21  18  88 NW10      30.15R WCI  10
6HR MIN TEMP:  17; 6HR MAX TEMP:  21;

CUMBERLAND     LGT SNOW  19  16  86 NW13      30.11R WCI   7
RICE LAKE      LGT SNOW  19  16  86 W7        30.13R WCI  10
6HR MIN TEMP:  15; 6HR MAX TEMP:  19;

CHETEK         CLOUDY    18  15  86 W8        30.12R WCI   8
6HR MIN TEMP:  15; 6HR MAX TEMP:  18;

LADYSMITH      CLOUDY    19  16  86 W10       30.09R WCI   8
6HR MIN TEMP:  15; 6HR MAX TEMP:  19;

EAU CLAIRE     LGT SNOW  18  14  84 W9        30.14R FOG     WCI   7
6HR MIN TEMP:  15; 6HR MAX TEMP:  18; 6HR PCP: TRACE;

MENOMONIE      CLOUDY    20  15  82 W12G22    30.16R WCI   8
6HR MIN TEMP:  17; 6HR MAX TEMP:  20;

NEW RICHMOND   LGT SNOW  18  14  85 W13       30.17R WCI   4
6HR MIN TEMP:  15; 6HR MAX TEMP:  18;

OSCEOLA        CLOUDY    19  16  85 W12G18    30.21R WCI   7
6HR MIN TEMP:  16; 6HR MAX TEMP:  19;

$$

WIZ003>005-009-010-017-018-081300-
NORTH CENTRAL WISCONSIN

CITY           SKY/WX    TMP DP  RH WIND       PRES   REMARKS
MANITOWISH WTR LGT SNOW  17  16  98 W6        29.95R WCI   8
6HR MIN TEMP:  14; 6HR MAX TEMP:  17;

ARBOR VITAE    CLOUDY    21  17  87 W6        29.95R WCI  13
6HR MIN TEMP:  17; 6HR MAX TEMP:  21;

WOODRUFF       CLOUDY    21  17  87 W6        29.95R WCI  13
6HR MIN TEMP:  17; 6HR MAX TEMP:  21;

RHINELANDER    FLURRIES  18  14  84 W14       29.96R WCI   4
6HR MIN TEMP:  13; 6HR MAX TEMP:  18; 6HR PCP: TRACE;

EAGLE RIVER    CLOUDY    18  14  83 W10       29.92R WCI   6
6HR MIN TEMP:  14; 6HR MAX TEMP:  18;

LAND O LAKES   LGT SNOW  19  16  88 W5        29.93R WCI  12
6HR MIN TEMP:  15; 6HR MAX TEMP:  19;

PHILLIPS       CLOUDY    17  15  91 W5        30.00R WCI  10
6HR MIN TEMP:  13; 6HR MAX TEMP:  17;

TOMAHAWK       FLURRIES  16  12  85 W9G17     29.99R WCI   4
6HR MIN TEMP:  12; 6HR MAX TEMP:  16;

MEDFORD        LGT SNOW  14  11  86 W12       30.03R WCI   1
6HR MIN TEMP:  13; 6HR MAX TEMP:  14;

MERRILL        FLURRIES  16  12  85 W9        30.02R WCI   4
6HR MIN TEMP:  14; 6HR MAX TEMP:  16;

$$

WIZ029-030-035-036-043>047-081300-
CENTRAL WISCONSIN

CITY           SKY/WX    TMP DP  RH WIND       PRES   REMARKS
WAUSAU         LGT SNOW  15  11  83 W12       30.03R FOG     WCI   2
6HR MIN TEMP:  14; 6HR MAX TEMP:  16; 6HR PCP: TRACE;

MOSINEE        LGT SNOW  14  12  92 W13       30.04R WCI   0
MARSHFIELD     LGT SNOW  14  10  84 W14       30.06R FOG     WCI  -1
6HR MIN TEMP:  14; 6HR MAX TEMP:  16; 6HR PCP: TRACE;

STEVENS POINT  LGT SNOW  14  10  82 W12G18    30.07R WCI   0
6HR MIN TEMP:  14; 6HR MAX TEMP:  17;

WAUPACA        CLOUDY    19  12  74 W15       30.08R WCI   5
6HR MIN TEMP:  19; 6HR MAX TEMP:  22;

WAUTOMA        LGT SNOW  16  12  84 W14       30.11R FOG     WCI   2
6HR MIN TEMP:  16; 6HR MAX TEMP:  20; 6HR PCP: TRACE;

WISC RAPIDS    LGT SNOW  15  11  83 W13       30.10R FOG     WCI   1
6HR MIN TEMP:  15; 6HR MAX TEMP:  19; 6HR PCP: TRACE;

CAMP DOUGLAS   FLURRIES  16  10  79 W12       30.14R WCI   3
6HR MIN TEMP:  15; 6HR MAX TEMP:  19; 6HR PCP: TRACE;

$$

WIZ011>013-019>022-031-037>040-048>050-081300-
NORTHEAST WISCONSIN

CITY           SKY/WX    TMP DP  RH WIND       PRES   REMARKS
ANTIGO         FLURRIES  14  11  87 W13G20    29.98R WCI   0
6HR MIN TEMP:  13; 6HR MAX TEMP:  15;

SHAWANO        CLOUDY    20  12  72 W8G18     30.03S WCI  10
6HR MIN TEMP:  19; 6HR MAX TEMP:  22;

OCONTO         CLOUDY    19  10  70 W16G24    30.01R WCI   4
6HR MIN TEMP:  19; 6HR MAX TEMP:  22;

STURGEON BAY   CLOUDY    20  13  74 W17G25    29.98R WCI   5
6HR MIN TEMP:  20; 6HR MAX TEMP:  22; 6HR PCP: TRACE;

GREEN BAY      PTCLDY    20  13  74 W15G24    30.04R WCI   6
6HR MIN TEMP:  20; 6HR MAX TEMP:  23; 6HR PCP: TRACE;

MANITOWOC      LGT SNOW  19  15  84 W13       30.04S FOG     WCI   6
6HR MIN TEMP:  19; 6HR MAX TEMP:  23; 6HR PCP: TRACE;

APPLETON       FLURRIES  18   9  68 W20G25    30.03R WCI   1
CLINTONVILLE   FLURRIES  18  10  73 W15G21    30.05R WCI   3
OSHKOSH        LGT SNOW  18  11  74 W12       30.07R WCI   5
6HR MIN TEMP:  18; 6HR MAX TEMP:  21; 6HR PCP: TRACE;

$$

WIZ032>034-041-042-053>061-081300-
SOUTHWEST WISCONSIN

CITY           SKY/WX    TMP DP  RH WIND       PRES   REMARKS
LA CROSSE      CLOUDY    19  11  70 W10G21    30.21R WCI   7
6HR MIN TEMP:  18; 6HR MAX TEMP:  19; 6HR PCP: TRACE;

SPARTA         FLURRIES  17  12  82 W7        30.17R WCI   7
6HR MIN TEMP:  16; 6HR MAX TEMP:  19;

VIROQUA        CLOUDY    14  10  84 W10       30.16R WCI   1
6HR MIN TEMP:  13; 6HR MAX TEMP:  17;

BOSCOBEL       CLOUDY    16   8  71 SW7       30.24R WCI   6
6HR MIN TEMP:  15; 6HR MAX TEMP:  20; 6HR PCP: TRACE;

PRAIRIE DU CHI CLOUDY    15   7  71 W10       30.26R WCI   2
6HR MIN TEMP:  14; 6HR MAX TEMP:  18;

PLATTEVILLE    MOCLDY    13   8  79 W17       30.22R WCI  -3
6HR MIN TEMP:  13; 6HR MAX TEMP:  21;

$$

WIZ056-057-062-063-064-067-068-081300-
SOUTH CENTRAL WISCONSIN

CITY           SKY/WX    TMP DP  RH WIND       PRES   REMARKS
REEDSBURG      FLURRIES  15   9  79 W14       30.16R WCI   0
6HR MIN TEMP:  14; 6HR MAX TEMP:  19;

BARABOO/DELLS  FLURRIES  15   9  76 W13       30.14R WCI   1
6HR MIN TEMP:  15; 6HR MAX TEMP:  19;

LONE ROCK      CLOUDY    15   7  70 W12       30.21R WCI   2
6HR MIN TEMP:  15; 6HR MAX TEMP:  21; 6HR PCP: TRACE;

MINERAL POINT  CLEAR     14  10  85 W16       30.18R WCI  -2
MADISON        FLURRIES  14   7  73 W9        30.16R WCI   2
6HR MIN TEMP:  14; 6HR MAX TEMP:  20; 6HR PCP: TRACE;

MIDDLETON      CLEAR     15  10  77 W16       30.16R WCI   0
6HR MIN TEMP:  15; 6HR MAX TEMP:  22;

WATERTOWN      CLOUDY    17  10  74 W18G25    30.13R WCI   0
6HR MIN TEMP:  17; 6HR MAX TEMP:  21;

MONROE         FLURRIES  14   9  79 W16G28    30.17R WCI  -2
JANESVILLE     CLOUDY    18  10  73 W16G23    30.18R WCI   3
$$

WIZ051-052-058>065-066-070>072-081300-
SOUTHEAST WISCONSIN

CITY           SKY/WX    TMP DP  RH WIND       PRES   REMARKS
MILWAUKEE      CLOUDY    21  10  62 W15G26    30.12R WCI   8
6HR MIN TEMP:  21; 6HR MAX TEMP:  24; 6HR PCP: TRACE;

WAUKESHA       CLOUDY    18   9  68 W17G32    30.12R WCI   2
MILWAUKEE/TIMM CLOUDY    19  10  68 W17       30.12R WCI   4
RACINE         FLURRIES  19   9  65 W15G23    30.14R WCI   5
6HR MIN TEMP:  19; 6HR MAX TEMP:  24; 6HR PCP: TRACE;

BURLINGTON     FLURRIES  17  11  75 W13G22    30.15R WCI   4
6HR MIN TEMP:  17; 6HR MAX TEMP:  23;

KENOSHA        CLOUDY    19   9  65 W17G28    30.14R WCI   4
6HR MIN TEMP:  19; 6HR MAX TEMP:  24; 6HR PCP: TRACE;

FOND DU LAC    CLOUDY    19   9  65 W13       30.09R WCI   6
6HR MIN TEMP:  19; 6HR MAX TEMP:  21; 6HR PCP: TRACE;

SHEBOYGAN      FLURRIES  19  11  70 W14G26    30.07R WCI   6
6HR MIN TEMP:  20; 6HR MAX TEMP:  22; 6HR PCP: TRACE;

WEST BEND      CLOUDY    19  10  68 W17       30.09R WCI   4
JUNEAU         FLURRIES  16  11  78 W10G21    30.12R WCI   4
6HR MIN TEMP:  16; 6HR MAX TEMP:  20;

$$

LSZ147-162-081300-
LAKE SUPERIOR

STATION/POSITION TIME  TEMP    WIND        PRES    WAVE
                       AIR SEA DIR/SP/G            HT/PER
                 (UTC) (F)     (DEG/KT/KT) (MB)    (FT/S)
DEVILS ISLAND    1100   28     340/ 23/ 29 1017.8R
PORT WING        1140   27     320/ 19/ 24 1019.0R
SAXON HARBOR     1140   30     330/ 22/ 27 1016.6R
$$

LMZ867-665-643>646-081300-
LAKE MICHIGAN

STATION/POSITION TIME  TEMP    WIND        PRES    WAVE
                C1F1C2F2C3F3C4F4C5F5C6F6C7F7C8M1C9M2Ca!



USA.gov is the U.S. government's official web portal to all federal, state and local government web resources and services.